[[{"header":{"parameterUnit":"m.s-1","parameterCategory":1,"la1":30.2991,"la2":30.254,"lo1":-89.0895,"lo2":-89.0444,"dy":0.0017,"dx":0.0017,"nx":28,"ny":28,"refTime":"2025-02-10T09:00:00:Z","depth":0,"parameterNumber":2,"parameterNumberName":"U-component_of_WINDS"},"data":[0,0,0,0,0,0,0,0,0,0,0,0,0,0,0,0,0,0,0,0,0,0,0,0,0,0,0,0,0,0,0,0,0,0,0,0,0,0,0,0,0,0,0,0,0,0,0,0,0,0,0,0,0,0,0,0,0,0,-3.6975,-3.6976,0,-3.7101,-3.7103,-3.7104,-3.7028,-3.7024,-3.702,-3.7017,-3.715,-3.7157,-3.7164,0,0,0,0,0,0,0,0,0,0,0,0,0,-3.6672,-3.6678,-3.6975,-3.6977,-3.6978,-3.7101,-3.7103,-3.7105,-3.7028,-3.7024,-3.7019,-3.7015,-3.7148,-3.7156,-3.7164,0,0,0,0,0,0,0,0,0,0,0,0,0,-3.6802,-3.668,-3.6975,-3.6955,-3.6954,-3.7101,-3.7103,-3.7105,-3.7029,-3.7024,-3.7018,-3.7013,-3.7145,-3.7155,-3.7165,-3.734,0,0,-3.7197,-3.7202,0,0,0,0,0,0,0,0,-3.6794,-3.6813,-3.6956,-3.6956,-3.6956,-3.7043,-3.7045,-3.7184,-3.7031,-3.7001,-3.7017,-3.701,-3.7119,-3.7131,-3.7167,-3.7346,-3.7352,-3.7198,-3.7205,-3.7209,-3.7212,0,0,0,0,0,0,0,-3.6785,-3.6807,-3.7025,-3.6958,-3.6958,-3.6941,-3.6953,-3.7071,-3.7089,-3.7003,-3.6998,-3.7014,-3.7118,-3.7157,-3.717,-3.7354,-3.7198,-3.7207,-3.7214,-3.7218,-3.7683,-3.7689,0,0,0,0,0,0,-3.6777,-3.68,-3.7021,-3.7029,-3.686,-3.6951,-3.6965,-3.7021,-3.7088,-3.7093,-3.7018,-3.701,-3.7142,-3.7158,-3.7174,-3.7383,-3.7209,-3.7219,-3.7225,-3.7677,-3.7684,-3.7691,0,0,0,0,0,0,-3.6771,-3.6798,-3.7016,-3.6913,-3.6939,-3.6962,-3.7026,-3.7026,-3.7065,-3.7099,-3.7102,-3.7055,-3.7138,-3.7159,-3.7299,-3.7386,-3.7223,-3.7233,-3.767,-3.7679,-3.7688,-3.7802,0,0,0,0,0,0,-3.6763,-3.6796,-3.6861,-3.6915,-3.6945,-3.7138,-3.7031,-3.7033,-3.7083,-3.7073,-3.7134,-3.7139,-3.7136,-3.7284,-3.7309,-3.7398,-3.7241,-3.7662,-3.7674,-3.7685,-3.779,-3.7814,-3.7834,0,0,0,0,0,-3.6752,-3.6889,-3.6865,-3.6892,-3.7027,-3.7143,-3.716,-3.7152,-3.709,-3.7157,-3.7179,-3.7137,-3.7373,-3.7299,-3.7327,-3.742,-3.7656,-3.7671,-3.7684,-3.7781,-3.7809,-3.7833,0,0,0,0,0,0,-3.6846,-3.6896,-3.687,-3.7028,-3.7082,-3.713,-3.7213,-3.7183,-3.7256,-3.7244,-3.7232,-3.7247,-3.7393,-3.742,-3.7337,-3.7593,-3.7505,-3.7525,-3.7569,-3.7597,-3.7618,-3.7608,-3.725,0,0,0,0,0,-3.6885,-3.6974,-3.7013,-3.7149,-3.7177,-3.7191,-3.7241,-3.723,-3.7286,-3.7309,-3.7341,-3.7398,-3.7485,-3.7542,-3.7624,-3.7794,-3.7807,-3.7872,-3.7894,-3.7912,-3.7929,-3.8022,-3.8051,-3.7736,-3.7736,-3.7736,0,0,-3.6967,-3.7005,-3.7062,-3.7169,-3.7209,-3.7302,-3.7211,-3.7313,-3.7382,-3.7325,-3.7458,-3.7484,-3.7547,-3.7703,-3.7773,-3.773,-3.8019,-3.7929,-3.7943,-3.7951,-3.8039,-3.8069,-3.8095,-3.7745,-3.7744,-3.7742,0,0,-3.7164,-3.7201,-3.7318,-3.7361,-3.7423,-3.7431,-3.746,-3.7513,-3.7528,-3.7661,-3.762,-3.7704,-3.7853,-3.79,-3.7943,-3.8159,-3.8123,-3.8186,-3.8299,-3.839,-3.8415,-3.8437,-3.8514,-3.8542,-3.8203,-3.8204,-3.8204,0,-3.7258,-3.7395,-3.7383,-3.7489,-3.7537,-3.7489,-3.7608,-3.7651,-3.7737,-3.7772,-3.7723,-3.791,-3.7949,-3.8115,-3.8168,-3.8205,-3.8238,-3.8178,-3.8412,-3.8434,-3.8454,-3.8528,-3.8557,-3.8211,-3.821,-3.8209,-3.8208,0,-3.7508,-3.7604,-3.7692,-3.7775,-3.7834,-3.7946,-3.7952,-3.8014,-3.7999,-3.8013,-3.815,-3.8195,-3.8285,-3.8324,-3.8311,-3.849,-3.8461,-3.8412,-3.8324,-3.8491,-3.856,-3.8588,-3.8221,-3.8218,-3.8216,-3.8214,0,0,-3.7766,-3.7842,-3.7874,-3.7912,-3.7977,-3.8052,-3.8163,-3.825,-3.8303,-3.8365,-3.8458,-3.8587,-3.8542,-3.8591,-3.8583,-3.8663,-3.8831,-3.8604,-3.8605,-3.8644,-3.9031,-3.9067,-3.91,-3.8808,-3.8813,-3.8818,-3.9026,0,-3.7966,-3.8158,-3.8151,-3.833,-3.842,-3.8376,-3.8472,-3.8524,-3.8541,-3.862,-3.8639,-3.873,-3.8664,-3.8694,-3.8771,-3.8794,-3.8908,-3.8779,-3.8896,-3.89,-3.888,-3.9136,-3.9174,-3.9368,-3.9053,-3.9057,-3.9061,0,-3.8225,-3.8294,-3.8482,-3.8535,-3.8572,-3.8659,-3.8739,-3.8815,-3.8874,-3.888,-3.8936,-3.8915,-3.9029,-3.8938,-3.9096,-3.9008,-3.9056,-3.9075,-3.9082,-3.9092,-3.899,-3.9152,-3.9429,-3.9458,-3.9103,-3.9099,-3.9096,0,-3.8394,-3.8535,-3.8665,-3.8699,-3.8764,-3.8826,-3.8857,-3.8909,-3.8963,-3.9033,-3.9068,-3.9151,-3.9197,-3.9263,-3.9266,-3.92,-3.9425,-3.9335,-3.9435,-3.9435,-3.9483,-3.948,-3.9772,-3.9516,-3.9515,-3.9515,-3.9514,0,-3.8618,-3.8734,-3.8742,-3.8823,-3.8953,-3.8945,-3.9074,-3.9099,-3.9147,-3.9232,-3.92,-3.9281,-3.928,-3.9364,-3.9367,-3.9497,-3.9518,-3.9528,-3.9527,-3.953,-3.9529,-3.956,-3.9547,-3.9522,-3.9521,-3.9519,-3.9518,0,-3.8828,-3.8838,-3.8977,-3.9028,-3.9043,-3.9137,-3.9181,-3.9258,-3.9272,-3.9381,-3.9406,-3.9429,-3.9525,-3.9535,-3.9648,-3.965,-3.9807,-3.9792,-3.9787,-3.9784,-3.9884,-3.9874,-4.0205,-4.0248,-3.9965,-3.9967,-3.997,0,-3.8969,-3.9058,-3.9118,-3.9172,-3.9206,-3.9294,-3.9348,-3.9345,-3.9403,-3.9476,-3.9545,-3.9638,-3.9712,-3.9869,-3.9896,-3.9983,-3.9969,-4.008,-3.9982,-3.9983,-3.9971,-3.9965,-3.9974,-4.0098,-4.0101,-4.0104,-4.0106,0,-3.922,-3.922,-3.9298,-3.938,-3.9445,-3.9509,-3.9568,-3.9615,-3.9619,-3.9686,-3.9784,-3.9841,-3.9956,-4.0049,-4.0134,-4.0167,-4.0138,-4.0137,-4.0164,-4.0168,-4.0161,-4.0165,-3.9838,-4.0129,-4.0126,-4.0125,-4.0123,-4.0123,-3.94,-3.9476,-3.9531,-3.9619,-3.9664,-3.9721,-3.9796,-3.982,-3.99,-3.9992,-3.9986,-4.0094,-4.0152,-4.0263,-4.0302,-4.0387,-4.0351,-4.0391,-4.0401,-4.0411,-4.0421,-4.0148,-4.0403,-4.0403,-4.0402,-4.0401,-4.0401,0,-3.9647,-3.968,-3.9762,-3.9846,-3.9917,-3.9883,-3.9947,-4.0009,-4.0104,-4.016,-4.0233,-4.0346,-4.0437,-4.0472,-4.0561,-4.0622,-4.0611,-4.0646,-4.0641,-4.0649,-4.0449,-4.0415,-4.0653,-4.0653,-4.0653,-4.0653,-4.0653,-4.0653,-3.9785,-3.9913,-3.9921,-4.0071,-4.0104,-4.0208,-4.0248,-4.0301,-4.0345,-4.0472,-4.0547,-4.0569,-4.0617,-4.0709,-4.0792,-4.08,-4.0834,-4.0874,-4.0877,-4.0688,-4.0663,-4.0639,-4.0607,-4.0882,-4.0882,-4.1069,-4.1071,-4.1073]},{"header":{"parameterUnit":"m.s-1","parameterCategory":1,"la1":30.2991,"la2":30.254,"lo1":-89.0895,"lo2":-89.0444,"dy":0.0017,"dx":0.0017,"nx":28,"ny":28,"refTime":"2025-02-10T09:00:00:Z","depth":0,"parameterNumber":3,"parameterNumberName":"V-component_of_WINDS"},"data":[0,0,0,0,0,0,0,0,0,0,0,0,0,0,0,0,0,0,0,0,0,0,0,0,0,0,0,0,0,0,0,0,0,0,0,0,0,0,0,0,0,0,0,0,0,0,0,0,0,0,0,0,0,0,0,0,0,0,-0.2185,-0.2185,0,-0.2121,-0.212,-0.212,-0.2106,-0.2107,-0.2107,-0.2108,-0.2042,-0.204,-0.2038,0,0,0,0,0,0,0,0,0,0,0,0,0,-0.2295,-0.2293,-0.2186,-0.2185,-0.2184,-0.2121,-0.212,-0.2119,-0.2106,-0.2107,-0.2107,-0.2108,-0.2043,-0.204,-0.2038,0,0,0,0,0,0,0,0,0,0,0,0,0,-0.224,-0.2292,-0.2186,-0.217,-0.2168,-0.2121,-0.212,-0.2119,-0.2106,-0.2107,-0.2107,-0.2108,-0.2044,-0.2041,-0.2037,-0.2003,0,0,-0.2027,-0.2026,0,0,0,0,0,0,0,0,-0.2244,-0.2237,-0.2173,-0.2171,-0.2168,-0.2122,-0.2135,-0.208,-0.2106,-0.2129,-0.2108,-0.2108,-0.2068,-0.2063,-0.2049,-0.2,-0.1997,-0.2027,-0.2025,-0.2024,-0.2023,0,0,0,0,0,0,0,-0.2247,-0.2239,-0.216,-0.2172,-0.2169,-0.2165,-0.2158,-0.2124,-0.2096,-0.2127,-0.2126,-0.2119,-0.2067,-0.2053,-0.2048,-0.1996,-0.2027,-0.2024,-0.2022,-0.2021,-0.191,-0.1909,0,0,0,0,0,0,-0.2254,-0.2242,-0.2162,-0.2158,-0.2208,-0.2162,-0.2155,-0.2136,-0.2096,-0.209,-0.2118,-0.2118,-0.2058,-0.2052,-0.2045,-0.1999,-0.2024,-0.202,-0.2019,-0.1911,-0.191,-0.1909,0,0,0,0,0,0,-0.2256,-0.2247,-0.2165,-0.22,-0.2189,-0.216,-0.2139,-0.2135,-0.212,-0.2089,-0.2084,-0.2109,-0.2058,-0.205,-0.2012,-0.1997,-0.2019,-0.2016,-0.1912,-0.191,-0.1909,-0.1909,0,0,0,0,0,0,-0.226,-0.2248,-0.2235,-0.22,-0.2187,-0.2134,-0.2138,-0.2133,-0.2114,-0.2114,-0.2079,-0.2073,-0.2058,-0.2017,-0.2009,-0.1993,-0.2013,-0.1913,-0.1911,-0.191,-0.191,-0.1908,-0.1905,0,0,0,0,0,-0.2264,-0.2239,-0.2235,-0.2225,-0.2171,-0.2133,-0.2126,-0.2108,-0.2113,-0.21,-0.2079,-0.2075,-0.2,-0.2014,-0.2004,-0.1987,-0.1914,-0.1912,-0.191,-0.1911,-0.1908,-0.1906,0,0,0,0,0,0,-0.2275,-0.2234,-0.2229,-0.2192,-0.2166,-0.2131,-0.2113,-0.2106,-0.2078,-0.2079,-0.2058,-0.205,-0.2013,-0.1996,-0.2012,-0.1949,-0.1957,-0.1953,-0.1962,-0.1958,-0.1956,-0.1961,-0.2011,0,0,0,0,0,-0.2273,-0.2246,-0.2212,-0.2182,-0.2169,-0.2143,-0.2126,-0.2114,-0.2086,-0.2075,-0.2052,-0.2025,-0.1995,-0.1976,-0.1947,-0.1907,-0.1898,-0.1891,-0.1888,-0.1886,-0.1883,-0.1857,-0.1853,-0.1901,-0.1901,-0.1901,0,0,-0.2269,-0.2243,-0.2228,-0.2184,-0.2162,-0.2133,-0.2134,-0.2104,-0.2082,-0.2071,-0.2033,-0.2015,-0.1983,-0.1943,-0.1925,-0.1928,-0.1867,-0.1884,-0.1882,-0.188,-0.1855,-0.185,-0.1846,-0.19,-0.19,-0.19,0,0,-0.2247,-0.2226,-0.2197,-0.2174,-0.2141,-0.2123,-0.2116,-0.2081,-0.2068,-0.2029,-0.2019,-0.1992,-0.1942,-0.1918,-0.19,-0.1864,-0.1858,-0.1855,-0.1843,-0.1818,-0.1814,-0.1811,-0.1795,-0.1791,-0.1852,-0.1852,-0.1852,0,-0.2247,-0.2203,-0.2184,-0.2153,-0.2133,-0.212,-0.2089,-0.2069,-0.2027,-0.2013,-0.2017,-0.1951,-0.1929,-0.1882,-0.1872,-0.1859,-0.1848,-0.1859,-0.1816,-0.1812,-0.1809,-0.1794,-0.1789,-0.1851,-0.1851,-0.1851,-0.1851,0,-0.2203,-0.2172,-0.2153,-0.2112,-0.2089,-0.206,-0.2034,-0.2014,-0.2003,-0.1984,-0.1943,-0.1915,-0.1879,-0.1867,-0.1858,-0.1817,-0.182,-0.182,-0.1828,-0.1804,-0.179,-0.1784,-0.1851,-0.1851,-0.1851,-0.1851,0,0,-0.2189,-0.2134,-0.2127,-0.2107,-0.2066,-0.2042,-0.201,-0.1973,-0.1955,-0.1926,-0.1897,-0.1853,-0.1851,-0.183,-0.1817,-0.1796,-0.1765,-0.1798,-0.1797,-0.1791,-0.1716,-0.1715,-0.1709,-0.1761,-0.176,-0.1759,-0.1718,0,-0.216,-0.2103,-0.2082,-0.2035,-0.2004,-0.1989,-0.1961,-0.1932,-0.1913,-0.1884,-0.1863,-0.183,-0.1833,-0.1819,-0.1797,-0.1774,-0.175,-0.1777,-0.1733,-0.1731,-0.174,-0.1702,-0.1702,-0.1665,-0.1713,-0.1712,-0.1711,0,-0.2121,-0.2089,-0.2037,-0.1997,-0.1984,-0.1959,-0.1921,-0.1894,-0.186,-0.1847,-0.1821,-0.1809,-0.1773,-0.1782,-0.1731,-0.1749,-0.173,-0.1715,-0.1713,-0.1708,-0.1719,-0.1695,-0.1654,-0.1647,-0.1703,-0.1703,-0.1704,0,-0.2113,-0.2057,-0.2018,-0.2001,-0.1954,-0.1936,-0.1916,-0.1883,-0.186,-0.1827,-0.1812,-0.1776,-0.1756,-0.1727,-0.1704,-0.1714,-0.1654,-0.1662,-0.1641,-0.1641,-0.1629,-0.163,-0.1583,-0.1618,-0.1618,-0.1618,-0.1619,0,-0.2083,-0.2052,-0.2014,-0.199,-0.1953,-0.1929,-0.1893,-0.1872,-0.1841,-0.1811,-0.1796,-0.1769,-0.1741,-0.1709,-0.1691,-0.1649,-0.1641,-0.1628,-0.1623,-0.1629,-0.163,-0.1615,-0.1617,-0.1617,-0.1617,-0.1618,-0.1618,0,-0.2069,-0.2042,-0.1998,-0.1956,-0.1944,-0.1919,-0.1882,-0.1857,-0.1836,-0.1798,-0.1788,-0.1754,-0.1715,-0.1689,-0.1641,-0.1628,-0.1582,-0.1579,-0.1593,-0.1591,-0.157,-0.1572,-0.1511,-0.1501,-0.1545,-0.1544,-0.1544,0,-0.2051,-0.2026,-0.198,-0.1959,-0.1937,-0.1904,-0.188,-0.1854,-0.183,-0.1787,-0.1766,-0.1726,-0.1693,-0.1631,-0.1602,-0.1563,-0.1558,-0.1539,-0.1552,-0.1557,-0.1555,-0.1556,-0.1552,-0.1537,-0.1537,-0.1536,-0.1536,0,-0.2022,-0.2009,-0.1976,-0.1936,-0.1908,-0.1876,-0.1844,-0.1827,-0.1795,-0.1768,-0.1728,-0.1701,-0.1649,-0.1609,-0.1567,-0.1544,-0.1534,-0.1532,-0.1525,-0.153,-0.1538,-0.1531,-0.1586,-0.1534,-0.1534,-0.1534,-0.1534,-0.1534,-0.2005,-0.198,-0.1943,-0.1905,-0.1877,-0.1847,-0.182,-0.1794,-0.1759,-0.1714,-0.1701,-0.1658,-0.162,-0.1562,-0.1539,-0.1504,-0.1506,-0.1496,-0.1493,-0.149,-0.1489,-0.1544,-0.1496,-0.1496,-0.1496,-0.1496,-0.1496,0,-0.1973,-0.1947,-0.1913,-0.1867,-0.1836,-0.1828,-0.179,-0.1765,-0.1727,-0.1693,-0.1659,-0.161,-0.157,-0.1536,-0.1493,-0.1471,-0.1465,-0.1461,-0.1462,-0.1456,-0.1491,-0.1501,-0.1466,-0.1466,-0.1466,-0.1466,-0.1466,-0.1466,-0.1953,-0.1911,-0.1893,-0.1835,-0.1809,-0.1766,-0.1745,-0.1715,-0.1687,-0.1633,-0.1599,-0.1576,-0.1541,-0.1495,-0.1457,-0.1448,-0.1432,-0.1428,-0.1418,-0.1451,-0.1454,-0.1458,-0.1466,-0.1426,-0.1426,-0.1386,-0.1386,-0.1385]}]]